Time,TemperatureF,DewpointF,PressureIn,WindDirection,WindDirectionDegrees,WindSpeedMPH,WindSpeedGustMPH,Humidity,HourlyPrecipIn,Conditions,Clouds,dailyrainin,SoftwareType,DateUTC
2013-07-14 00:05:00,70.3,66.6,30.09,NNE,32,1.0,1.0,88,0.00,,,0.00,Wunderground v.1.15,2013-07-14 04:05:00,
2013-07-14 00:10:00,70.4,67.0,30.09,NNE,31,1.0,1.0,89,0.00,,,0.00,Wunderground v.1.15,2013-07-14 04:10:00,
2013-07-14 00:15:00,70.4,66.7,30.09,NNE,18,1.0,1.0,88,0.00,,,0.00,Wunderground v.1.15,2013-07-14 04:15:00,
2013-07-14 00:25:00,70.4,66.7,30.08,NNE,28,1.0,1.0,88,0.00,,,0.00,Wunderground v.1.15,2013-07-14 04:25:00,
2013-07-14 00:30:00,70.4,66.7,30.08,NNE,24,0.0,0.0,88,0.00,,,0.00,Wunderground v.1.15,2013-07-14 04:30:00,
2013-07-14 00:40:00,70.6,66.9,30.09,NNE,30,0.0,0.0,88,0.00,,,0.00,Wunderground v.1.15,2013-07-14 04:40:00,
2013-07-14 00:45:00,70.6,66.9,30.08,NNE,22,0.0,0.0,88,0.00,,,0.00,Wunderground v.1.15,2013-07-14 04:45:00,
2013-07-14 00:50:00,70.6,66.5,30.08,NNE,26,1.0,1.0,87,0.00,,,0.00,Wunderground v.1.15,2013-07-14 04:50:00,
2013-07-14 01:00:00,70.3,66.9,30.08,NNE,13,0.0,0.0,89,0.00,,,0.00,Wunderground v.1.15,2013-07-14 05:00:00,
2013-07-14 01:05:00,70.1,66.7,30.08,NNE,26,0.0,0.0,89,0.00,,,0.00,Wunderground v.1.15,2013-07-14 05:05:00,
2013-07-14 01:15:00,69.9,66.8,30.08,NNE,17,0.0,0.0,90,0.00,,,0.00,Wunderground v.1.15,2013-07-14 05:15:00,
2013-07-14 01:20:00,69.9,66.8,30.08,NNE,19,0.0,0.0,90,0.00,,,0.00,Wunderground v.1.15,2013-07-14 05:20:00,
2013-07-14 01:30:00,70.1,67.0,30.08,NNE,29,0.0,4.0,90,0.00,,,0.00,Wunderground v.1.15,2013-07-14 05:30:00,
2013-07-14 01:40:00,70.3,66.9,30.08,North,5,1.0,4.0,89,0.00,,,0.00,Wunderground v.1.15,2013-07-14 05:40:00,
2013-07-14 01:50:00,70.3,66.9,30.08,NNW,344,1.0,1.0,89,0.00,,,0.00,Wunderground v.1.15,2013-07-14 05:50:00,
2013-07-14 02:00:00,70.6,66.9,30.08,NNE,23,2.0,2.0,88,0.00,,,0.00,Wunderground v.1.15,2013-07-14 06:00:00,
2013-07-14 02:10:00,70.6,67.2,30.07,North,5,1.0,4.0,89,0.00,,,0.00,Wunderground v.1.15,2013-07-14 06:10:00,
2013-07-14 02:20:00,70.6,67.2,30.08,North,350,1.0,1.0,89,0.00,,,0.00,Wunderground v.1.15,2013-07-14 06:20:00,
2013-07-14 02:25:00,70.4,67.0,30.08,North,355,0.0,1.0,89,0.00,,,0.00,Wunderground v.1.15,2013-07-14 06:25:00,
2013-07-14 02:30:00,70.4,67.3,30.08,North,355,1.0,1.0,90,0.00,,,0.00,Wunderground v.1.15,2013-07-14 06:30:00,
2013-07-14 02:35:00,70.4,67.3,30.08,North,355,1.0,1.0,90,0.00,,,0.00,Wunderground v.1.15,2013-07-14 06:35:00,
2013-07-14 02:40:00,70.4,67.3,30.08,North,360,0.0,0.0,90,0.00,,,0.00,Wunderground v.1.15,2013-07-14 06:40:00,
2013-07-14 02:45:00,70.3,67.5,30.08,North,360,0.0,0.0,91,0.00,,,0.00,Wunderground v.1.15,2013-07-14 06:45:00,
2013-07-14 02:50:00,70.1,67.3,30.08,North,360,0.0,0.0,91,0.00,,,0.00,Wunderground v.1.15,2013-07-14 06:50:00,
2013-07-14 02:55:00,70.1,67.3,30.08,North,360,0.0,4.0,91,0.00,,,0.00,Wunderground v.1.15,2013-07-14 06:55:00,
2013-07-14 03:00:00,69.9,67.2,30.07,North,360,0.0,0.0,91,0.00,,,0.00,Wunderground v.1.15,2013-07-14 07:00:00,
2013-07-14 03:10:00,69.8,67.4,30.07,North,360,0.0,0.0,92,0.00,,,0.00,Wunderground v.1.15,2013-07-14 07:10:00,
2013-07-14 03:15:00,69.6,67.5,30.07,North,360,0.0,0.0,93,0.00,,,0.00,Wunderground v.1.15,2013-07-14 07:15:00,
2013-07-14 03:25:00,69.4,67.6,30.07,North,360,0.0,2.0,94,0.00,,,0.00,Wunderground v.1.15,2013-07-14 07:25:00,
2013-07-14 03:35:00,69.4,67.6,30.07,North,360,0.0,1.0,94,0.00,,,0.00,Wunderground v.1.15,2013-07-14 07:35:00,
2013-07-14 03:45:00,69.4,67.9,30.07,North,360,0.0,0.0,95,0.00,,,0.00,Wunderground v.1.15,2013-07-14 07:45:00,
2013-07-14 03:55:00,69.4,67.9,30.07,North,360,0.0,0.0,95,0.00,,,0.00,Wunderground v.1.15,2013-07-14 07:55:00,
2013-07-14 04:05:00,69.6,68.1,30.08,North,360,0.0,0.0,95,0.00,,,0.00,Wunderground v.1.15,2013-07-14 08:05:00,
2013-07-14 04:15:00,69.8,68.0,30.08,North,360,0.0,0.0,94,0.00,,,0.00,Wunderground v.1.15,2013-07-14 08:15:00,
2013-07-14 04:20:00,69.9,68.1,30.08,North,360,0.0,0.0,94,0.00,,,0.00,Wunderground v.1.15,2013-07-14 08:20:00,
2013-07-14 04:30:00,70.1,68.0,30.08,North,360,0.0,0.0,93,0.00,,,0.00,Wunderground v.1.15,2013-07-14 08:30:00,
2013-07-14 04:35:00,70.3,68.2,30.08,North,5,0.0,0.0,93,0.00,,,0.00,Wunderground v.1.15,2013-07-14 08:35:00,
2013-07-14 04:45:00,70.3,68.2,30.08,North,5,0.0,0.0,93,0.00,,,0.00,Wunderground v.1.15,2013-07-14 08:45:00,
2013-07-14 04:50:00,70.3,68.2,30.09,North,5,0.0,0.0,93,0.00,,,0.00,Wunderground v.1.15,2013-07-14 08:50:00,
2013-07-14 05:00:00,70.1,68.3,30.09,North,5,0.0,0.0,94,0.00,,,0.01,Wunderground v.1.15,2013-07-14 09:00:00,
2013-07-14 05:10:00,69.8,68.3,30.09,North,5,0.0,0.0,95,0.00,,,0.01,Wunderground v.1.15,2013-07-14 09:10:00,
2013-07-14 05:20:00,69.6,68.4,30.10,North,5,0.0,0.0,96,0.00,,,0.02,Wunderground v.1.15,2013-07-14 09:20:00,
2013-07-14 05:25:00,69.6,68.4,30.10,North,5,0.0,0.0,96,0.00,,,0.02,Wunderground v.1.15,2013-07-14 09:25:00,
2013-07-14 05:35:00,69.4,68.2,30.10,North,5,0.0,0.0,96,0.00,,,0.02,Wunderground v.1.15,2013-07-14 09:35:00,
2013-07-14 05:45:00,69.4,68.2,30.11,North,5,0.0,0.0,96,0.00,,,0.02,Wunderground v.1.15,2013-07-14 09:45:00,
2013-07-14 05:50:00,69.3,68.1,30.11,North,5,0.0,0.0,96,0.00,,,0.02,Wunderground v.1.15,2013-07-14 09:50:00,
2013-07-14 06:00:00,69.3,68.1,30.11,North,5,0.0,0.0,96,0.00,,,0.02,Wunderground v.1.15,2013-07-14 10:00:00,
2013-07-14 06:10:00,69.3,68.1,30.11,North,5,0.0,0.0,96,0.00,,,0.02,Wunderground v.1.15,2013-07-14 10:10:00,
2013-07-14 06:20:00,69.3,67.8,30.12,North,5,0.0,0.0,95,0.00,,,0.02,Wunderground v.1.15,2013-07-14 10:20:00,
2013-07-14 06:30:00,69.3,67.8,30.12,North,5,0.0,0.0,95,0.00,,,0.02,Wunderground v.1.15,2013-07-14 10:30:00,
2013-07-14 06:40:00,69.4,67.6,30.12,North,5,1.0,1.0,94,0.00,,,0.02,Wunderground v.1.15,2013-07-14 10:40:00,
2013-07-14 06:45:00,69.4,67.6,30.12,North,5,1.0,1.0,94,0.00,,,0.02,Wunderground v.1.15,2013-07-14 10:45:00,
2013-07-14 06:50:00,69.4,67.3,30.12,North,5,0.0,0.0,93,0.00,,,0.02,Wunderground v.1.15,2013-07-14 10:50:00,
2013-07-14 07:00:00,69.4,67.3,30.13,North,5,0.0,0.0,93,0.00,,,0.02,Wunderground v.1.15,2013-07-14 11:00:00,
2013-07-14 07:10:00,69.6,67.5,30.13,North,5,0.0,1.0,93,0.00,,,0.02,Wunderground v.1.15,2013-07-14 11:10:00,
2013-07-14 07:20:00,69.8,67.4,30.14,North,10,1.0,1.0,92,0.00,,,0.02,Wunderground v.1.15,2013-07-14 11:20:00,
2013-07-14 07:30:00,69.8,67.4,30.14,North,10,0.0,0.0,92,0.00,,,0.02,Wunderground v.1.15,2013-07-14 11:30:00,
2013-07-14 07:40:00,69.9,67.5,30.15,North,10,0.0,0.0,92,0.00,,,0.02,Wunderground v.1.15,2013-07-14 11:40:00,
2013-07-14 07:50:00,70.1,67.7,30.15,North,10,0.0,0.0,92,0.00,,,0.02,Wunderground v.1.15,2013-07-14 11:50:00,
2013-07-14 07:55:00,70.1,67.7,30.15,North,10,0.0,0.0,92,0.00,,,0.02,Wunderground v.1.15,2013-07-14 11:55:00,
2013-07-14 08:00:00,70.3,67.9,30.15,North,10,0.0,0.0,92,0.00,,,0.02,Wunderground v.1.15,2013-07-14 12:00:00,
2013-07-14 08:10:00,70.6,67.8,30.15,North,10,0.0,0.0,91,0.00,,,0.02,Wunderground v.1.15,2013-07-14 12:10:00,
2013-07-14 08:15:00,70.8,68.0,30.15,North,10,0.0,0.0,91,0.00,,,0.02,Wunderground v.1.15,2013-07-14 12:15:00,
2013-07-14 08:25:00,70.8,68.4,30.16,NNE,12,0.0,0.0,92,0.00,,,0.02,Wunderground v.1.15,2013-07-14 12:25:00,
2013-07-14 08:30:00,70.6,68.5,30.16,NNE,15,0.0,0.0,93,0.00,,,0.02,Wunderground v.1.15,2013-07-14 12:30:00,
2013-07-14 08:35:00,70.8,68.7,30.16,NNE,15,0.0,0.0,93,0.00,,,0.02,Wunderground v.1.15,2013-07-14 12:35:00,
2013-07-14 08:45:00,70.4,68.6,30.16,NNE,15,1.0,1.0,94,0.00,,,0.02,Wunderground v.1.15,2013-07-14 12:45:00,
2013-07-14 08:50:00,70.4,68.6,30.17,NNE,15,1.0,1.0,94,0.00,,,0.02,Wunderground v.1.15,2013-07-14 12:50:00,
2013-07-14 09:00:00,70.3,68.5,30.17,NNE,16,2.0,3.0,94,0.00,,,0.02,Wunderground v.1.15,2013-07-14 13:00:00,
2013-07-14 09:10:00,70.4,68.9,30.18,NNE,16,0.0,0.0,95,0.00,,,0.03,Wunderground v.1.15,2013-07-14 13:10:00,
2013-07-14 09:20:00,70.9,69.4,30.18,NNE,16,0.0,0.0,95,0.00,,,0.03,Wunderground v.1.15,2013-07-14 13:20:00,
2013-07-14 09:30:00,72.1,70.3,30.18,NNE,16,0.0,0.0,94,0.00,,,0.03,Wunderground v.1.15,2013-07-14 13:30:00,
2013-07-14 09:35:00,72.7,70.2,30.18,NNE,26,0.0,3.0,92,0.00,,,0.03,Wunderground v.1.15,2013-07-14 13:35:00,
2013-07-14 09:41:00,72.7,70.2,30.18,NNE,21,1.0,4.0,92,0.00,,,0.03,Wunderground v.1.15,2013-07-14 13:41:00,
2013-07-14 09:50:00,73.3,70.5,30.18,NNE,16,1.0,6.0,91,0.00,,,0.03,Wunderground v.1.15,2013-07-14 13:50:00,
2013-07-14 09:55:00,73.5,70.1,30.18,NE,42,2.0,2.0,89,0.00,,,0.03,Wunderground v.1.15,2013-07-14 13:55:00,
2013-07-14 10:00:00,73.7,70.9,30.18,NE,36,2.0,2.0,91,0.00,,,0.03,Wunderground v.1.15,2013-07-14 14:00:00,
2013-07-14 10:10:00,74.0,70.6,30.18,NNE,33,0.0,0.0,89,0.00,,,0.03,Wunderground v.1.15,2013-07-14 14:10:00,
2013-07-14 10:20:00,74.2,70.4,30.18,NE,35,0.0,0.0,88,0.00,,,0.03,Wunderground v.1.15,2013-07-14 14:20:00,
2013-07-14 10:25:00,74.2,70.1,30.18,NE,34,0.0,0.0,87,0.00,,,0.03,Wunderground v.1.15,2013-07-14 14:25:00,
2013-07-14 10:30:00,74.2,70.4,30.18,NNE,33,0.0,0.0,88,0.00,,,0.03,Wunderground v.1.15,2013-07-14 14:30:00,
2013-07-14 10:40:00,74.0,69.5,30.19,NNE,33,0.0,0.0,86,0.00,,,0.03,Wunderground v.1.15,2013-07-14 14:40:00,
2013-07-14 10:50:00,74.4,69.6,30.19,NNE,33,0.0,0.0,85,0.00,,,0.03,Wunderground v.1.15,2013-07-14 14:50:00,
2013-07-14 11:00:00,74.2,69.7,30.19,NNE,33,0.0,0.0,86,0.00,,,0.03,Wunderground v.1.15,2013-07-14 15:00:00,
2013-07-14 11:10:00,74.0,68.9,30.20,NNE,22,1.0,1.0,84,0.00,,,0.03,Wunderground v.1.15,2013-07-14 15:10:00,
2013-07-14 11:20:00,73.7,70.6,30.20,NNE,32,0.0,0.0,90,0.00,,,0.04,Wunderground v.1.15,2013-07-14 15:20:00,
2013-07-14 11:30:00,73.3,70.2,30.21,NNE,32,0.0,0.0,90,0.00,,,0.04,Wunderground v.1.15,2013-07-14 15:30:00,
2013-07-14 11:35:00,73.3,70.2,30.21,NNE,32,0.0,0.0,90,0.00,,,0.04,Wunderground v.1.15,2013-07-14 15:35:00,
2013-07-14 11:40:00,73.5,70.7,30.21,ESE,104,0.0,0.0,91,0.00,,,0.04,Wunderground v.1.15,2013-07-14 15:40:00,
2013-07-14 11:50:00,73.9,69.1,30.21,ENE,64,0.0,0.0,85,0.00,,,0.04,Wunderground v.1.15,2013-07-14 15:50:00,
2013-07-14 12:00:00,74.7,69.2,30.21,ENE,63,0.0,0.0,83,0.00,,,0.04,Wunderground v.1.15,2013-07-14 16:00:00,
2013-07-14 12:10:00,75.4,70.2,30.22,ENE,62,0.0,0.0,84,0.00,,,0.04,Wunderground v.1.15,2013-07-14 16:10:00,
2013-07-14 12:20:00,75.6,69.4,30.22,ENE,63,0.0,0.0,81,0.00,,,0.04,Wunderground v.1.15,2013-07-14 16:20:00,
2013-07-14 12:30:00,75.1,68.9,30.22,ENE,63,0.0,0.0,81,0.00,,,0.04,Wunderground v.1.15,2013-07-14 16:30:00,
2013-07-14 12:40:00,74.6,69.1,30.22,ENE,63,0.0,0.0,83,0.00,,,0.04,Wunderground v.1.15,2013-07-14 16:40:00,
2013-07-14 12:50:00,74.6,69.4,30.22,ENE,63,0.0,0.0,84,0.00,,,0.04,Wunderground v.1.15,2013-07-14 16:50:00,
2013-07-14 12:55:00,74.6,68.4,30.22,ENE,67,0.0,0.0,81,0.00,,,0.04,Wunderground v.1.15,2013-07-14 16:55:00,
2013-07-14 13:05:00,74.7,68.8,30.23,South,180,0.0,0.0,82,0.00,,,0.04,Wunderground v.1.15,2013-07-14 17:05:00,
2013-07-14 13:10:00,74.7,68.1,30.23,South,178,0.0,0.0,80,0.00,,,0.04,Wunderground v.1.15,2013-07-14 17:10:00,
2013-07-14 13:20:00,75.6,69.7,30.22,SSE,162,0.0,0.0,82,0.00,,,0.04,Wunderground v.1.15,2013-07-14 17:20:00,
2013-07-14 13:30:00,75.6,68.3,30.22,South,187,1.0,1.0,78,0.00,,,0.04,Wunderground v.1.15,2013-07-14 17:30:00,
2013-07-14 13:40:00,75.3,68.7,30.22,SSW,203,0.0,0.0,80,0.00,,,0.04,Wunderground v.1.15,2013-07-14 17:40:00,
2013-07-14 13:45:00,74.9,67.9,30.22,SSW,202,0.0,0.0,79,0.00,,,0.04,Wunderground v.1.15,2013-07-14 17:45:00,
2013-07-14 14:00:00,74.6,68.4,30.23,South,176,2.0,2.0,81,0.00,,,0.04,Wunderground v.1.15,2013-07-14 18:00:00,
2013-07-14 14:05:00,74.4,68.2,30.23,South,175,1.0,4.0,81,0.00,,,0.04,Wunderground v.1.15,2013-07-14 18:05:00,
2013-07-14 14:10:00,73.9,68.1,30.23,South,175,1.0,1.0,82,0.00,,,0.04,Wunderground v.1.15,2013-07-14 18:10:00,
2013-07-14 14:20:00,73.5,68.0,30.23,NNE,16,0.0,0.0,83,0.00,,,0.04,Wunderground v.1.15,2013-07-14 18:20:00,
2013-07-14 14:30:00,73.9,68.1,30.22,NE,42,0.0,0.0,82,0.00,,,0.04,Wunderground v.1.15,2013-07-14 18:30:00,
2013-07-14 14:35:00,74.2,68.7,30.22,NE,42,0.0,0.0,83,0.00,,,0.04,Wunderground v.1.15,2013-07-14 18:35:00,
2013-07-14 14:40:00,74.6,68.7,30.22,NE,43,0.0,0.0,82,0.00,,,0.04,Wunderground v.1.15,2013-07-14 18:40:00,
2013-07-14 14:50:00,75.4,67.7,30.20,NNW,332,0.0,3.0,77,0.00,,,0.04,Wunderground v.1.15,2013-07-14 18:50:00,
2013-07-14 15:00:00,76.7,68.2,30.20,NW,323,0.0,0.0,75,0.00,,,0.04,Wunderground v.1.15,2013-07-14 19:00:00,
2013-07-14 15:05:00,77.2,69.4,30.20,SSE,153,0.0,0.0,77,0.00,,,0.04,Wunderground v.1.15,2013-07-14 19:05:00,
2013-07-14 15:10:00,77.9,70.5,30.20,ESE,105,0.0,0.0,78,0.00,,,0.04,Wunderground v.1.15,2013-07-14 19:10:00,
2013-07-14 15:25:00,79.4,69.2,30.19,South,169,0.0,0.0,71,0.00,,,0.04,Wunderground v.1.15,2013-07-14 19:25:00,
2013-07-14 15:35:00,80.3,69.2,30.19,East,84,0.0,5.0,69,0.00,,,0.04,Wunderground v.1.15,2013-07-14 19:35:00,
2013-07-14 15:40:00,80.1,68.6,30.19,East,94,0.0,5.0,68,0.00,,,0.04,Wunderground v.1.15,2013-07-14 19:40:00,
2013-07-14 15:50:00,80.7,69.6,30.19,South,190,0.0,1.0,69,0.00,,,0.04,Wunderground v.1.15,2013-07-14 19:50:00,
2013-07-14 15:55:00,81.2,69.2,30.18,East,88,0.0,0.0,67,0.00,,,0.04,Wunderground v.1.15,2013-07-14 19:55:00,
2013-07-14 16:00:00,81.6,69.1,30.18,East,80,0.0,0.0,66,0.00,,,0.04,Wunderground v.1.15,2013-07-14 20:00:00,
2013-07-14 16:10:00,82.2,68.8,30.18,East,91,0.0,0.0,64,0.00,,,0.04,Wunderground v.1.15,2013-07-14 20:10:00,
2013-07-14 16:20:00,81.6,67.8,30.18,SSE,166,1.0,1.0,63,0.00,,,0.04,Wunderground v.1.15,2013-07-14 20:20:00,
2013-07-14 16:30:00,81.4,67.6,30.18,South,173,0.0,0.0,63,0.00,,,0.04,Wunderground v.1.15,2013-07-14 20:30:00,
2013-07-14 16:40:00,81.1,67.3,30.18,NNE,32,0.0,0.0,63,0.00,,,0.04,Wunderground v.1.15,2013-07-14 20:40:00,
2013-07-14 16:50:00,81.6,67.8,30.19,NNE,32,0.0,0.0,63,0.00,,,0.04,Wunderground v.1.15,2013-07-14 20:50:00,
2013-07-14 17:00:00,82.0,68.2,30.18,NNE,32,0.0,0.0,63,0.00,,,0.04,Wunderground v.1.15,2013-07-14 21:00:00,
2013-07-14 17:10:00,81.6,67.3,30.18,ESE,112,0.0,0.0,62,0.00,,,0.04,Wunderground v.1.15,2013-07-14 21:10:00,
2013-07-14 17:20:00,81.4,67.6,30.18,NE,47,0.0,0.0,63,0.00,,,0.04,Wunderground v.1.15,2013-07-14 21:20:00,
2013-07-14 17:25:00,81.4,66.2,30.18,NE,49,0.0,0.0,60,0.00,,,0.04,Wunderground v.1.15,2013-07-14 21:25:00,
2013-07-14 17:30:00,82.0,68.2,30.18,NE,49,0.0,0.0,63,0.00,,,0.04,Wunderground v.1.15,2013-07-14 21:30:00,
2013-07-14 17:40:00,82.0,66.7,30.18,ENE,62,0.0,1.0,60,0.00,,,0.04,Wunderground v.1.15,2013-07-14 21:40:00,
2013-07-14 17:45:00,82.0,66.7,30.18,ENE,61,0.0,1.0,60,0.00,,,0.04,Wunderground v.1.15,2013-07-14 21:45:00,
2013-07-14 17:50:00,81.8,66.6,30.17,ENE,73,1.0,1.0,60,0.00,,,0.04,Wunderground v.1.15,2013-07-14 21:50:00,
2013-07-14 18:00:00,82.0,67.7,30.17,ENE,73,0.0,0.0,62,0.00,,,0.04,Wunderground v.1.15,2013-07-14 22:00:00,
2013-07-14 18:10:00,82.2,66.9,30.17,NE,52,0.0,4.0,60,0.00,,,0.04,Wunderground v.1.15,2013-07-14 22:10:00,
2013-07-14 18:20:00,82.2,66.4,30.17,NE,55,0.0,0.0,59,0.00,,,0.04,Wunderground v.1.15,2013-07-14 22:20:00,
2013-07-14 18:30:00,81.8,68.0,30.17,NE,36,1.0,5.0,63,0.00,,,0.04,Wunderground v.1.15,2013-07-14 22:30:00,
2013-07-14 18:35:00,80.3,67.9,30.18,NNE,28,3.0,5.0,66,0.00,,,0.04,Wunderground v.1.15,2013-07-14 22:35:00,
2013-07-14 18:40:00,79.4,67.9,30.18,NNE,29,4.0,4.0,68,0.00,,,0.04,Wunderground v.1.15,2013-07-14 22:40:00,
2013-07-14 18:50:00,79.2,69.0,30.18,NNE,30,1.0,1.0,71,0.00,,,0.04,Wunderground v.1.15,2013-07-14 22:50:00,
2013-07-14 19:00:00,79.0,68.4,30.17,NNE,31,1.0,1.0,70,0.00,,,0.04,Wunderground v.1.15,2013-07-14 23:00:00,
2013-07-14 19:10:00,78.6,68.0,30.18,NNE,28,2.0,2.0,70,0.00,,,0.04,Wunderground v.1.15,2013-07-14 23:10:00,
2013-07-14 19:15:00,78.5,68.3,30.18,NNE,29,2.0,2.0,71,0.00,,,0.04,Wunderground v.1.15,2013-07-14 23:15:00,
2013-07-14 19:25:00,77.9,67.3,30.19,NNE,32,2.0,4.0,70,0.00,,,0.04,Wunderground v.1.15,2013-07-14 23:25:00,
2013-07-14 19:35:00,77.7,67.1,30.19,NE,44,1.0,2.0,70,0.00,,,0.04,Wunderground v.1.15,2013-07-14 23:35:00,
2013-07-14 19:40:00,77.6,67.4,30.19,NE,43,1.0,1.0,71,0.00,,,0.04,Wunderground v.1.15,2013-07-14 23:40:00,
2013-07-14 19:45:00,77.4,66.8,30.19,NE,44,1.0,2.0,70,0.00,,,0.04,Wunderground v.1.15,2013-07-14 23:45:00,
2013-07-14 19:55:00,77.0,66.9,30.19,NE,42,0.0,1.0,71,0.00,,,0.04,Wunderground v.1.15,2013-07-14 23:55:00,
2013-07-14 20:00:00,77.0,67.3,30.19,NE,42,0.0,0.0,72,0.00,,,0.04,Wunderground v.1.15,2013-07-15 00:00:00,
2013-07-14 20:10:00,76.5,67.2,30.20,NE,42,0.0,0.0,73,0.00,,,0.04,Wunderground v.1.15,2013-07-15 00:10:00,
2013-07-14 20:20:00,76.0,66.7,30.20,NE,42,0.0,0.0,73,0.00,,,0.04,Wunderground v.1.15,2013-07-15 00:20:00,
2013-07-14 20:30:00,75.4,66.5,30.21,NE,42,0.0,0.0,74,0.00,,,0.04,Wunderground v.1.15,2013-07-15 00:30:00,
2013-07-14 20:35:00,75.3,66.0,30.21,NE,42,0.0,0.0,73,0.00,,,0.04,Wunderground v.1.15,2013-07-15 00:35:00,
2013-07-14 20:40:00,74.9,64.9,30.21,NE,42,0.0,0.0,71,0.00,,,0.04,Wunderground v.1.15,2013-07-15 00:40:00,
2013-07-14 20:50:00,74.2,65.0,30.21,NE,42,0.0,0.0,73,0.00,,,0.04,Wunderground v.1.15,2013-07-15 00:50:00,
2013-07-14 21:00:00,73.2,65.2,30.21,NE,42,0.0,0.0,76,0.00,,,0.04,Wunderground v.1.15,2013-07-15 01:00:00,
2013-07-14 21:10:00,72.3,64.7,30.22,NE,42,0.0,0.0,77,0.00,,,0.04,Wunderground v.1.15,2013-07-15 01:10:00,
2013-07-14 21:20:00,71.5,65.0,30.22,NE,42,0.0,0.0,80,0.00,,,0.04,Wunderground v.1.15,2013-07-15 01:20:00,
2013-07-14 21:25:00,71.1,65.0,30.22,NE,42,0.0,0.0,81,0.00,,,0.04,Wunderground v.1.15,2013-07-15 01:25:00,
2013-07-14 21:30:00,70.8,65.4,30.22,NE,42,0.0,0.0,83,0.00,,,0.04,Wunderground v.1.15,2013-07-15 01:30:00,
2013-07-14 21:35:00,70.4,65.7,30.22,NE,42,0.0,0.0,85,0.00,,,0.04,Wunderground v.1.15,2013-07-15 01:35:00,
2013-07-14 21:45:00,69.8,65.4,30.22,NE,42,0.0,0.0,86,0.00,,,0.04,Wunderground v.1.15,2013-07-15 01:45:00,
2013-07-14 21:50:00,69.6,65.6,30.22,NE,42,0.0,0.0,87,0.00,,,0.04,Wunderground v.1.15,2013-07-15 01:50:00,
2013-07-14 22:00:00,69.1,65.7,30.22,NE,42,0.0,0.0,89,0.00,,,0.04,Wunderground v.1.15,2013-07-15 02:00:00,
2013-07-14 22:05:00,69.1,66.0,30.23,NE,42,0.0,0.0,90,0.00,,,0.04,Wunderground v.1.15,2013-07-15 02:05:00,
2013-07-14 22:10:00,69.1,66.0,30.23,NE,42,0.0,0.0,90,0.00,,,0.04,Wunderground v.1.15,2013-07-15 02:10:00,
2013-07-14 22:20:00,69.4,66.7,30.24,NE,42,0.0,0.0,91,0.00,,,0.04,Wunderground v.1.15,2013-07-15 02:20:00,
2013-07-14 22:25:00,69.9,66.8,30.24,NE,42,0.0,0.0,90,0.00,,,0.04,Wunderground v.1.15,2013-07-15 02:25:00,
2013-07-14 22:30:00,70.3,67.2,30.24,NE,42,0.0,0.0,90,0.00,,,0.04,Wunderground v.1.15,2013-07-15 02:30:00,
2013-07-14 22:40:00,70.6,67.2,30.24,NE,42,0.0,0.0,89,0.00,,,0.04,Wunderground v.1.15,2013-07-15 02:40:00,
2013-07-14 22:50:00,70.6,66.9,30.24,NE,42,0.0,0.0,88,0.00,,,0.04,Wunderground v.1.15,2013-07-15 02:50:00,
2013-07-14 23:00:00,70.8,66.7,30.24,NE,42,0.0,0.0,87,0.00,,,0.04,Wunderground v.1.15,2013-07-15 03:00:00,
2013-07-14 23:10:00,70.6,65.9,30.24,NE,42,0.0,0.0,85,0.00,,,0.04,Wunderground v.1.15,2013-07-15 03:10:00,
2013-07-14 23:15:00,70.6,64.8,30.25,NE,42,0.0,0.0,82,0.00,,,0.04,Wunderground v.1.15,2013-07-15 03:15:00,
2013-07-14 23:20:00,70.8,64.7,30.24,NE,42,0.0,0.0,81,0.00,,,0.04,Wunderground v.1.15,2013-07-15 03:20:00,
2013-07-14 23:30:00,71.1,65.0,30.25,NE,42,0.0,0.0,81,0.00,,,0.04,Wunderground v.1.15,2013-07-15 03:30:00,
2013-07-14 23:35:00,70.9,64.8,30.25,NE,42,0.0,0.0,81,0.00,,,0.04,Wunderground v.1.15,2013-07-15 03:35:00,
2013-07-14 23:40:00,70.8,65.0,30.25,NE,42,0.0,0.0,82,0.00,,,0.04,Wunderground v.1.15,2013-07-15 03:40:00,
2013-07-14 23:45:00,70.4,64.6,30.25,NE,42,0.0,0.0,82,0.00,,,0.04,Wunderground v.1.15,2013-07-15 03:45:00,
2013-07-14 23:55:00,69.9,64.8,30.25,NE,42,0.0,0.0,84,0.00,,,0.04,Wunderground v.1.15,2013-07-15 03:55:00,